Terminal Aerodrome Forecast
Issued by NWS Houston/Galveston, TX

Home | Current Version | Previous Version | Text Only | Print | Product List | Glossary On
Versions: 1 2 3 4 5 6 7 8 9 10 11 12 13 14 15 16 17 18 19 20 21 22 23 24 25 26 27 28 29 30 31 32 33 34 35 36
000
FTUS44 KHGX 301120
TAFCLL
TAF
KCLL 301120Z 3012/3112 17004KT P6SM SCT250
     FM301500 17009KT P6SM SCT050
     FM310200 16008KT P6SM SCT250
     FM310900 16008KT P6SM SCT015=

USA.gov is the U.S. government's official web portal to all federal, state and local government web resources and services.